Location: Arbon
(43.0005°N, 0.7472°E)
Time: 10:22:42
(UTC+00:00)

SR - Pass Details

Date: 29 November 2020
Orbit: 575 x 880 km, 66.7° (Epoch: 21 January)

Event Time Altitude Azimuth Distance (km) Brightness Sun altitude
Rises 03:17:30 0° 327° (NNW) 3,201 - -41.3°
Reaches altitude 10° 03:19:49 10° 326° (NW) 2,319 - -40.8°
Maximum altitude 03:25:10 76° 242° (WSW) 843 - -39.9°
Drops below altitude 10° 03:30:53 10° 157° (SSE) 2,475 - -38.8°
Exits shadow 03:32:09 - 156° (SSE) 2,952 ? -38.6°
Sets 03:33:25 0° 156° (SSE) 3,432 ? -38.4°
